Dodge City, KS

3:27 AM CST on February 25, 2017 (GMT -0600)
Dodge City Regional

Weather History for KDDC - August, 2013

Change the Weather History Date:

Saturday, August 3, 2013

  Actual Average Record
Temperature  
Mean Temperature 79 °F -  
Max Temperature 90 °F 91 °F 105 °F (1959)
Min Temperature 68 °F 65 °F 50 °F (1880)
Cooling Degree Days 14    
Growing Degree Days 29 (Base 50)    
Moisture  
Dew Point 67 °F    
Average Humidity 75    
Maximum Humidity 96    
Minimum Humidity 37    
Precipitation  
Precipitation 0.00 in - - ()
Sea Level Pressure  
Sea Level Pressure 29.93 in    
Wind  
Wind Speed 13 mph (ENE)    
Max Wind Speed 17 mph    
Max Gust Speed 24 mph    
Visibility 7 miles    
Events Thunderstorm    
Averages and records for this station are not official NWS values.
T = Trace of Precipitation, MM = Missing Value Source: NWS Daily Summary

Daily Weather History Graph

Daily Weather History Graph

Search for Another Location

Airport or City:

Trip Planner

Search our weather history database for the weather conditions in past years. The results will help you decide how hot, cold, wet, or windy it might be!

Date:

Astronomy

Aug. 03, 2013 Rise Set
Actual Time 6:45 AM CDT 8:46 PM CDT
Civil Twilight 6:16 AM CDT 9:14 PM CDT
Nautical Twilight 5:41 AM CDT 9:50 PM CDT
Astronomical Twilight 5:03 AM CDT 10:27 PM CDT
Moon 3:56 AM CDT (8/3) 6:29 PM CDT (8/3)
Length of Visible Light 14h 58m
Length of Day
14h 00m
Waning Crescent, 9% of the Moon is Illuminated
Aug 3
Waning Crescent
Aug 6
New
Aug 14
First Quarter
Aug 20
Full
Aug 28
Last Quarter

Hourly Weather History & Observations

Time (CDT) Temp. Heat Index Dew Point Humidity Pressure Visibility Wind Dir Wind Speed Gust Speed Precip Events Conditions
12:52 AM 73.9 °F - 69.1 °F 85% 29.81 in 10.0 mi ENE 17.3 mph - N/A   Clear
1:52 AM 73.0 °F - 69.1 °F 87% 29.81 in 9.0 mi ENE 11.5 mph - N/A   Clear
2:52 AM 72.0 °F - 69.1 °F 91% 29.81 in 7.0 mi ENE 10.4 mph - N/A   Clear
3:52 AM 71.1 °F - 69.1 °F 93% 29.82 in 7.0 mi NE 8.1 mph - N/A   Clear
4:52 AM 69.1 °F - 66.9 °F 93% 29.82 in 4.0 mi NNE 9.2 mph - N/A   Clear
5:52 AM 68.0 °F - 66.0 °F 93% 29.83 in 7.0 mi NNE 9.2 mph - N/A   Clear
6:19 AM 68.0 °F - 66.2 °F 94% 29.94 in 3.0 mi NNE 10.4 mph - N/A   Scattered Clouds
6:24 AM 68.0 °F - 66.2 °F 94% 29.94 in 1.8 mi NNE 11.5 mph - N/A   Scattered Clouds
6:26 AM 68.0 °F - 66.2 °F 94% 29.94 in 1.2 mi NNE 12.7 mph - N/A   Mostly Cloudy
6:34 AM 68.0 °F - 66.2 °F 94% 29.94 in 0.8 mi NE 11.5 mph - N/A   Mist
6:43 AM 68.0 °F - 66.2 °F 94% 29.94 in 1.2 mi NE 12.7 mph - N/A   Overcast
6:52 AM 68.0 °F - 66.9 °F 96% 29.85 in 1.8 mi NE 13.8 mph - N/A   Overcast
7:01 AM 68.0 °F - 66.2 °F 94% 29.95 in 2.0 mi NE 13.8 mph - N/A   Overcast
7:34 AM 69.8 °F - 66.2 °F 88% 29.96 in 3.0 mi NE 12.7 mph - N/A   Overcast
7:52 AM 69.1 °F - 66.9 °F 93% 29.87 in 3.0 mi NE 13.8 mph - N/A   Overcast
8:52 AM 70.0 °F - 66.9 °F 90% 29.90 in 6.0 mi NE 13.8 mph - N/A   Overcast
9:13 AM 71.6 °F - 66.2 °F 83% 29.99 in 7.0 mi NE 13.8 mph - N/A   Overcast
9:40 AM 73.4 °F - 66.2 °F 78% 30.00 in 8.0 mi NE 15.0 mph - N/A   Overcast
9:52 AM 75.0 °F - 66.9 °F 76% 29.91 in 9.0 mi NE 15.0 mph - N/A   Overcast
10:30 AM 78.8 °F - 66.2 °F 65% 30.00 in 9.0 mi NE 16.1 mph - N/A   Scattered Clouds
10:52 AM 80.1 °F 82.3 °F 66.9 °F 64% 29.91 in 10.0 mi ENE 15.0 mph - N/A   Partly Cloudy
11:52 AM 82.9 °F 85.0 °F 66.0 °F 56% 29.90 in 10.0 mi ENE 13.8 mph - N/A   Clear
12:52 PM 84.9 °F 86.6 °F 64.9 °F 51% 29.91 in 10.0 mi East 16.1 mph 21.9 mph N/A   Clear
1:52 PM 88.0 °F 90.3 °F 66.0 °F 48% 29.91 in 10.0 mi East 15.0 mph 23.0 mph N/A   Partly Cloudy
2:52 PM 90.0 °F 92.8 °F 66.9 °F 46% 29.92 in 10.0 mi ENE 15.0 mph 24.2 mph N/A   Mostly Cloudy
3:52 PM 89.1 °F 91.3 °F 66.0 °F 46% 29.92 in 10.0 mi ENE 12.7 mph 20.7 mph N/A   Scattered Clouds
4:52 PM 87.1 °F 88.9 °F 64.9 °F 48% 29.92 in 10.0 mi East 16.1 mph 23.0 mph N/A   Mostly Cloudy
5:52 PM 86.0 °F 88.2 °F 66.0 °F 51% 29.93 in 9.0 mi ENE 16.1 mph 23.0 mph N/A   Partly Cloudy
6:52 PM 84.9 °F 87.1 °F 66.0 °F 53% 29.94 in 9.0 mi ENE 13.8 mph 23.0 mph N/A   Scattered Clouds
7:52 PM 82.0 °F 84.1 °F 66.0 °F 58% 29.95 in 9.0 mi East 12.7 mph - N/A   Clear
8:52 PM 80.1 °F 82.7 °F 68.0 °F 67% 29.96 in 10.0 mi East 12.7 mph - N/A   Clear
9:52 PM 78.1 °F - 69.1 °F 74% 29.97 in 9.0 mi East 12.7 mph - N/A   Partly Cloudy
10:18 PM 78.8 °F - 69.8 °F 74% 30.08 in 8.0 mi East 12.7 mph - N/A   Mostly Cloudy
10:52 PM 77.0 °F - 69.1 °F 76% 29.99 in 8.0 mi East 11.5 mph - N/A   Mostly Cloudy
11:21 PM 75.2 °F - 69.8 °F 83% 30.10 in 8.0 mi East 8.1 mph - N/A   Overcast
11:34 PM 75.2 °F - 69.8 °F 83% 30.10 in 8.0 mi ESE 8.1 mph - N/A Thunderstorm Mostly Cloudy
11:45 PM 75.2 °F - 69.8 °F 83% 30.09 in 8.0 mi ESE 8.1 mph - N/A   Mostly Cloudy
11:52 PM 75.0 °F - 71.1 °F 87% 30.00 in 8.0 mi ESE 6.9 mph - N/A Thunderstorm Mostly Cloudy